Regional Weather Roundup
Issued by NWS

Home | Current Version | Previous Version | Graphics & Text | Print | Product List | Glossary On
Versions: 1 2 3 4 5 6 7 8 9 10 11 12 13 14 15 16 17 18 19 20 21 22 23 24 25 26 27 28 29 30 31 32 33 34 35 36 37 38 39 40 41 42 43 44 45 46 47 48 49 50
000
ASUS45 KABQ 241801
RWRNM
WEATHER ROUNDUP FOR NEW MEXICO
NATIONAL WEATHER SERVICE ALBUQUERQUE NM
1200 PM MDT FRI OCT 24 2014

NOTE: "FAIR" MEANS FEW OR NO CLOUDS BELOW 12,000 FEET AGL WITH NO
       SIGNIFICANT WEATHER OR OBSTRUCTIONS TO VISION.

      THIS PRODUCT IS RELEASED AS TWO VERSIONS.  ONE VERSION NEAR
      THE TOP OF THE HOUR CONTAINING PRELIMINARY DATA FROM ALBUQUERQUE
      AND OTHER STATIONS.  A FINAL VERSION WITH ADDITIONAL DATA IS
      ISSUED ABOUT 10 MINUTES AFTER THE HOUR.

NMZ501-503-504-510>518-241900-
NORTHWEST PLATEAU/NORTHCENTRAL MOUNTAINS

CITY           SKY/WX    TMP DP  RH WIND       PRES   REMARKS
FARMINGTON     SUNNY     64  36  35 E8        30.35F
6HR MIN TEMP:  40; 6HR MAX TEMP:  64;

LOS ALAMOS     SUNNY     62  32  32 CALM      30.42F
SANTA FE       SUNNY     68  31  25 N10       30.36F
6HR MIN TEMP:  44; 6HR MAX TEMP:  68;

TAOS           SUNNY     64  32  29 NW5       30.41F
ANGEL FIRE     FAIR      64  26  24 CALM      30.45F

$$
NMZ402-403-502-505>509-241900-
WESTCENTRAL MOUNTAINS/SOUTHWEST MOUNTAINS

CITY           SKY/WX    TMP DP  RH WIND       PRES   REMARKS
GALLUP         SUNNY     65  36  34 CALM      30.40F
6HR MIN TEMP:  32; 6HR MAX TEMP:  65;

GRANTS         SUNNY     66  30  26 N5        30.42F
SILVER CITY    SUNNY     73  43  33 S5        30.36S

$$
NMZ407-409-411-412-241900-
SOUTHERN DESERTS

CITY           SKY/WX    TMP DP  RH WIND       PRES   REMARKS
LORDSBURG      FAIR      73  46  38 SE7       30.28S
DEMING         SUNNY     74  48  39 S3        30.28F
6HR MIN TEMP:  45; 6HR MAX TEMP:  75;

LAS CRUCES     SUNNY     74  48  39 CALM      30.29F
HOLLOMAN AFB   SUNNY     72  50  45 S6        30.26F
T OR C         SUNNY     72  46  39 VRB3      30.30F
6HR MIN TEMP:  52; 6HR MAX TEMP:  72;


$$
NMZ519>523-241900-
CENTRAL VALLEYS/CENTRAL HIGHLANDS

CITY           SKY/WX    TMP DP  RH WIND       PRES   REMARKS
ALBUQUERQUE    SUNNY     67  33  28 CALM      30.35F
6HR MIN TEMP:  47; 6HR MAX TEMP:  67;

DOUBLE EAGLE   SUNNY     70  34  26 CALM      30.37S
MORIARTY ARPT  FAIR      73  27  17 W10G18    30.35F
6HR MIN TEMP:  30; 6HR MAX TEMP:  74;

CLINES CORNERS SUNNY     70  26  19 NW23      30.35F
6HR MIN TEMP:  45; 6HR MAX TEMP:  71;

BELEN          FAIR      69  35  28 CALM      30.33F
SOCORRO        FAIR      68  37  31 N6        30.32F
6HR MIN TEMP:  44; 6HR MAX TEMP:  68;


$$
NMZ524>526-539-540-241900-
SOUTHCENTRAL MOUNTAINS

CITY           SKY/WX    TMP DP  RH WIND       PRES   REMARKS
RUIDOSO        SUNNY     68  39  34 N7        30.41S

$$
NMZ527>531-241900-
NORTHEAST HIGHLANDS/NORTHEAST PLAINS

CITY           SKY/WX    TMP DP  RH WIND       PRES   REMARKS
LAS VEGAS      SUNNY     73  26  17 VRB3      30.33F
6HR MIN TEMP:  39; 6HR MAX TEMP:  73;

RATON          SUNNY     71  33  24 VRB3      30.28F
6HR MIN TEMP:  36; 6HR MAX TEMP:  71;

CLAYTON        SUNNY     81  31  16 S15G21    30.21F
6HR MIN TEMP:  55; 6HR MAX TEMP:  81;


$$
NMZ532>537-241900-
EASTCENTRAL PLAINS

CITY           SKY/WX    TMP DP  RH WIND       PRES   REMARKS
TUCUMCARI      SUNNY     76  38  25 CALM      30.18F
6HR MIN TEMP:  44; 6HR MAX TEMP:  76;

CANNON AFB     SUNNY     74  41  29 W12       30.22S
6HR MIN TEMP:  53; 6HR MAX TEMP:  74;

CLOVIS AIRPORT SUNNY     75  43  31 W8        30.23F

$$
NMZ028-029-538-241900-
SOUTHEAST PLAINS

CITY           SKY/WX    TMP DP  RH WIND       PRES   REMARKS
ROSWELL        SUNNY     74  53  48 VRB3      30.21F
6HR MIN TEMP:  49; 6HR MAX TEMP:  74;

CARLSBAD       SUNNY     73  60  63 SE6       30.20F
6HR MIN TEMP:  52; 6HR MAX TEMP:  74;

HOBBS          SUNNY     77  54  44 S8        30.23F


$$



USA.gov is the U.S. government's official web portal to all federal, state and local government web resources and services.